Tracking 29892 objects as of 21-Nov-2024
HD Live streaming from Space Station
objects crossing your sky now

ONEWEB-0219

Track ONEWEB-0219 now!
10-day predictions
ONEWEB-0219 is classified as:


NORAD ID: 48223
Int'l Code: 2021-031P
Perigee: 1,211.7 km
Apogee: 1,214.1 km
Inclination: 87.9 °
Period: 109.5 minutes
Semi major axis: 7583 km
RCS: Unknown
Launch date: April 25, 2021
Source: United Kingdom (UK)
Launch site: VOSTOCHNY COSMODROME (VOSTO)
Your satellite tracking list
Your tracking list is empty




NASA's NSSDC Master Catalog

Two Line Element Set (TLE):
1 48223U 21031P   24325.67588464  .00000283  00000-0  72971-3 0  9992
2 48223  87.9029  43.7403 0001614 107.6610 252.4696 13.14504013173030
Source of the keplerian elements: AFSPC